TimeCST,TemperatureF,Dew PointF,Humidity,Sea Level PressureIn,VisibilityMPH,Wind Direction,Wind SpeedMPH,Gust SpeedMPH,PrecipitationIn,Events,Conditions,WindDirDegrees,DateUTC
12:15 AM,44.6,26.6,49,29.97,10.0,SE,3.5,-,N/A,,Scattered Clouds,140,2013-02-04 06:15:00
12:35 AM,46.4,28.4,50,29.97,10.0,Calm,Calm,-,N/A,,Mostly Cloudy,0,2013-02-04 06:35:00
12:55 AM,46.4,26.6,46,29.96,10.0,SSE,5.8,-,N/A,,Mostly Cloudy,160,2013-02-04 06:55:00
1:15 AM,50.0,28.4,43,29.96,10.0,SSE,5.8,-,N/A,,Mostly Cloudy,150,2013-02-04 07:15:00
1:55 AM,50.0,28.4,43,29.95,10.0,SSE,8.1,-,N/A,,Scattered Clouds,160,2013-02-04 07:55:00
2:15 AM,50.0,28.4,43,29.94,10.0,SSE,8.1,-,N/A,,Scattered Clouds,160,2013-02-04 08:15:00
2:35 AM,50.0,28.4,43,29.94,10.0,SSE,6.9,-,N/A,,Mostly Cloudy,160,2013-02-04 08:35:00
2:55 AM,50.0,28.4,43,29.93,10.0,SSE,8.1,-,N/A,,Mostly Cloudy,160,2013-02-04 08:55:00
3:15 AM,51.8,28.4,41,29.93,10.0,SSE,8.1,-,N/A,,Mostly Cloudy,160,2013-02-04 09:15:00
4:55 AM,50.0,30.2,47,29.89,10.0,SSE,9.2,17.3,N/A,,Mostly Cloudy,160,2013-02-04 10:55:00
5:15 AM,50.0,30.2,47,29.88,10.0,SSE,8.1,-,N/A,,Mostly Cloudy,160,2013-02-04 11:15:00
5:35 AM,50.0,32.0,50,29.88,10.0,SSE,10.4,-,N/A,,Mostly Cloudy,160,2013-02-04 11:35:00
5:55 AM,50.0,32.0,50,29.87,10.0,SSE,9.2,-,N/A,,Mostly Cloudy,160,2013-02-04 11:55:00
6:15 AM,46.4,33.8,62,29.88,7.0,South,6.9,-,N/A,,Scattered Clouds,170,2013-02-04 12:15:00
6:35 AM,46.4,35.6,66,29.87,5.0,South,13.8,24.2,0.01,,Haze,170,2013-02-04 12:35:00
6:55 AM,46.4,35.6,66,29.88,10.0,South,6.9,18.4,0.01,,Overcast,180,2013-02-04 12:55:00
7:15 AM,46.4,35.6,66,29.89,10.0,South,10.4,-,N/A,,Overcast,170,2013-02-04 13:15:00
7:35 AM,46.4,35.6,66,29.89,10.0,SSE,11.5,16.1,N/A,,Overcast,160,2013-02-04 13:35:00
7:55 AM,46.4,37.4,71,29.90,10.0,SSE,8.1,-,N/A,,Overcast,150,2013-02-04 13:55:00
8:15 AM,46.4,37.4,71,29.90,10.0,SSE,5.8,-,N/A,,Overcast,160,2013-02-04 14:15:00
8:35 AM,46.4,39.2,76,29.91,2.5,Calm,Calm,-,0.03,,Haze,0,2013-02-04 14:35:00
8:55 AM,46.4,39.2,76,29.91,10.0,South,8.1,-,0.03,,Mostly Cloudy,170,2013-02-04 14:55:00
9:15 AM,46.4,39.2,76,29.90,10.0,South,5.8,16.1,N/A,,Mostly Cloudy,170,2013-02-04 15:15:00
9:35 AM,48.2,41.0,76,29.91,10.0,South,8.1,-,N/A,,Mostly Cloudy,180,2013-02-04 15:35:00
9:55 AM,48.2,41.0,76,29.92,10.0,South,6.9,-,N/A,,Overcast,180,2013-02-04 15:55:00
10:15 AM,50.0,41.0,71,29.92,10.0,South,8.1,-,N/A,,Mostly Cloudy,190,2013-02-04 16:15:00
10:35 AM,50.0,42.8,76,29.92,10.0,South,8.1,-,N/A,,Mostly Cloudy,170,2013-02-04 16:35:00
10:55 AM,51.8,42.8,71,29.92,10.0,South,5.8,-,N/A,,Mostly Cloudy,180,2013-02-04 16:55:00
11:15 AM,51.8,42.8,71,29.92,10.0,South,5.8,-,N/A,,Scattered Clouds,190,2013-02-04 17:15:00
11:35 AM,53.6,44.6,72,29.91,10.0,SSW,4.6,-,N/A,,Scattered Clouds,200,2013-02-04 17:35:00
11:55 AM,55.4,44.6,67,29.90,10.0,SSW,8.1,-,N/A,,Scattered Clouds,210,2013-02-04 17:55:00
12:15 PM,55.4,44.6,67,29.88,10.0,SW,6.9,-,N/A,,Clear,220,2013-02-04 18:15:00
12:35 PM,57.2,44.6,63,29.87,10.0,SSW,6.9,-,N/A,,Clear,210,2013-02-04 18:35:00
12:55 PM,59.0,44.6,59,29.87,10.0,SW,8.1,-,N/A,,Clear,230,2013-02-04 18:55:00
1:15 PM,59.0,44.6,59,29.87,10.0,WSW,8.1,-,N/A,,Scattered Clouds,250,2013-02-04 19:15:00
1:35 PM,59.0,44.6,59,29.86,10.0,West,6.9,-,N/A,,Scattered Clouds,260,2013-02-04 19:35:00
1:55 PM,60.8,42.8,52,29.85,10.0,SW,6.9,-,N/A,,Scattered Clouds,230,2013-02-04 19:55:00
2:15 PM,60.8,44.6,55,29.85,10.0,SW,4.6,-,N/A,,Clear,230,2013-02-04 20:15:00
2:35 PM,60.8,42.8,52,29.84,10.0,West,6.9,-,N/A,,Scattered Clouds,270,2013-02-04 20:35:00
2:55 PM,60.8,42.8,52,29.84,10.0,West,5.8,-,N/A,,Clear,270,2013-02-04 20:55:00
3:15 PM,60.8,42.8,52,29.84,10.0,West,3.5,-,N/A,,Clear,280,2013-02-04 21:15:00
3:35 PM,62.6,42.8,48,29.84,10.0,Calm,Calm,-,N/A,,Clear,0,2013-02-04 21:35:00
3:55 PM,62.6,42.8,48,29.84,10.0,Calm,Calm,-,N/A,,Clear,0,2013-02-04 21:55:00
4:15 PM,62.6,41.0,45,29.85,10.0,Calm,Calm,-,N/A,,Clear,0,2013-02-04 22:15:00
4:35 PM,62.6,42.8,48,29.85,10.0,Calm,Calm,-,N/A,,Clear,0,2013-02-04 22:35:00
4:55 PM,60.8,41.0,48,29.85,10.0,Calm,Calm,-,N/A,,Clear,0,2013-02-04 22:55:00
5:15 PM,60.8,41.0,48,29.85,10.0,Calm,Calm,-,N/A,,Clear,0,2013-02-04 23:15:00
5:35 PM,59.0,41.0,51,29.86,10.0,Calm,Calm,-,N/A,,Clear,0,2013-02-04 23:35:00
5:55 PM,53.6,41.0,62,29.87,10.0,Calm,Calm,-,N/A,,Clear,0,2013-02-04 23:55:00
6:15 PM,51.8,41.0,67,29.88,10.0,Calm,Calm,-,N/A,,Clear,0,2013-02-05 00:15:00
6:35 PM,48.2,41.0,76,29.89,10.0,Calm,Calm,-,N/A,,Clear,0,2013-02-05 00:35:00
6:55 PM,46.4,37.4,71,29.90,10.0,Calm,Calm,-,N/A,,Clear,0,2013-02-05 00:55:00
7:15 PM,46.4,35.6,66,29.91,10.0,Calm,Calm,-,N/A,,Clear,0,2013-02-05 01:15:00
7:35 PM,46.4,35.6,66,29.91,10.0,Calm,Calm,-,N/A,,Clear,0,2013-02-05 01:35:00
7:55 PM,46.4,33.8,62,29.91,10.0,Calm,Calm,-,N/A,,Clear,0,2013-02-05 01:55:00
8:15 PM,46.4,33.8,62,29.92,10.0,North,3.5,-,N/A,,Clear,10,2013-02-05 02:15:00
8:35 PM,44.6,33.8,66,29.93,10.0,North,4.6,-,N/A,,Clear,10,2013-02-05 02:35:00
8:55 PM,44.6,33.8,66,29.94,10.0,Calm,Calm,-,N/A,,Clear,0,2013-02-05 02:55:00
9:15 PM,42.8,33.8,70,29.95,10.0,SE,3.5,-,N/A,,Clear,140,2013-02-05 03:15:00
9:35 PM,44.6,33.8,66,29.95,10.0,NE,3.5,-,N/A,,Clear,40,2013-02-05 03:35:00
9:55 PM,44.6,33.8,66,29.96,10.0,Calm,Calm,-,N/A,,Clear,0,2013-02-05 03:55:00
10:15 PM,39.2,32.0,75,29.95,10.0,Calm,Calm,-,N/A,,Clear,0,2013-02-05 04:15:00
10:35 PM,37.4,32.0,81,29.96,10.0,Calm,Calm,-,N/A,,Clear,0,2013-02-05 04:35:00
10:55 PM,35.6,33.8,93,29.95,10.0,Calm,Calm,-,N/A,,Clear,0,2013-02-05 04:55:00
11:15 PM,35.6,32.0,87,29.95,10.0,Calm,Calm,-,N/A,,Clear,0,2013-02-05 05:15:00
11:35 PM,35.6,32.0,87,29.95,10.0,Calm,Calm,-,N/A,,Clear,0,2013-02-05 05:35:00
11:55 PM,33.8,32.0,93,29.95,10.0,Calm,Calm,-,N/A,,Clear,0,2013-02-05 05:55:00